CAPE
0 0 0 0 0 0 0 0 0 0 22 32 35 84 287 93 197 279 215 321 413 292 0 1 163 312 647 823 1009 1025 1041 945 995 1101 1127 1164 1218 1285 1349 1346 1283 1412 1671 1545
0 0 0 0 0 0 0 0 0 0 15 27 55 183 260 220 235 219 256 281 261 272 57 20 145 272 229 259 821 937 1146 1205 1187 1210 1202 1332 1381 1424 1441 1412 1405 1470 1411 1429
0 0 0 0 0 0 0 0 0 0 29 151 136 218 241 268 297 361 422 235 218 197 162 77 17 118 147 173 443 783 977 1050 1103 1311 1424 1450 1448 1461 1477 1468 1438 1563 1565 1489
0 0 0 0 0 0 0 0 0 4 33 121 149 129 379 601 631 572 295 270 248 258 167 97 130 121 83 86 121 153 462 319 728 798 1002 1251 1306 1434 1573 1512 1570 1637 1639 1583
0 0 0 0 0 0 0 0 4 29 260 298 500 299 187 573 604 415 354 313 275 199 153 146 130 73 48 9 81 111 126 73 314 550 617 615 848 854 795 977 926 637 783 474
0 0 0 0 0 1 14 15 194 112 399 586 435 98 82 439 450 421 352 339 330 293 186 80 60 47 76 116 52 154 73 132 28 105 210 227 399 699 146 165 5 2 3 3
0 0 0 0 52 0 38 0 338 265 475 589 406 142 281 431 483 407 404 424 328 152 111 64 35 57 80 154 193 234 126 188 250 122 146 98 152 21 9 3 2 2 3 4
0 0 0 0 31 89 125 0 553 453 626 700 330 154 454 496 463 457 458 333 214 102 89 33 6 17 83 251 196 206 155 81 52 101 98 53 26 7 4 2 1 0 1 2
0 0 3 8 132 166 71 424 518 605 641 733 569 288 311 469 485 520 494 383 128 38 42 16 10 6 28 15 11 129 105 28 17 1 1 2 3 3 3 4 1 1 1 1
0 0 0 0 13 0 61 307 454 433 368 565 233 227 213 332 463 535 513 332 114 16 1 5 5 6 3 3 7 42 7 4 4 6 3 2 2 4 2 1 2 2 2 1
0 0 0 4 58 43 185 195 252 280 296 290 250 185 142 353 506 608 568 315 118 32 4 2 4 5 6 4 4 2 4 2 2 2 1 1 1 1 1 2 1 1 2 1
6 191 247 230 117 23 187 218 193 276 340 356 339 420 208 325 544 596 560 371 224 84 22 33 13 2 2 5 4 5 3 5 3 3 4 3 1 2 0 0 1 0 0 0
0 0 0 1 54 59 92 71 77 119 204 226 238 303 223 307 341 321 604 475 319 188 76 69 101 41 1 2 4 4 7 7 6 4 8 6 6 9 1 0 0 1 1 0
0 2 10 2 13 39 53 53 79 215 295 361 265 133 189 279 125 357 512 557 396 245 164 129 113 45 1 3 2 0 0 0 1 0 0 0 0 0 0 0 0 1 0 0
0 0 0 0 5 6 7 15 52 99 111 93 83 219 170 230 332 419 404 448 366 285 88 8 2 9 0 0 3 1 0 0 0 0 0 0 0 0 0 0 0 0 0 0
0 0 0 0 21 20 0 0 0 21 0 12 68 56 122 169 245 344 333 285 331 236 110 15 4 12 0 0 0 0 0 0 0 0 0 0 0 0 0 0 0 0 0 0
0 6 8 3 3 11 1 10 1 0 0 0 0 0 80 100 209 368 341 305 309 252 167 148 46 18 0 0 0 0 0 0 0 0 0 0 0 0 0 0 0 0 0 0
6 25 15 67 140 72 49 1 0 0 0 0 0 56 283 348 545 507 372 234 98 43 44 48 36 49 5 0 0 0 0 0 0 0 0 0 0 0 0 0 0 0 0 0
0 0 0 1 14 19 88 11 0 0 0 0 17 167 369 509 548 463 278 160 126 140 23 0 0 6 22 1 0 0 0 0 0 0 0 0 0 0 0 0 0 0 0 0
61 2 0 0 2 0 0 0 0 0 0 0 70 237 320 404 345 269 170 238 189 76 6 0 0 18 0 0 0 0 0 0 0 0 0 0 0 0 0 0 0 0 0 0
88 79 25 34 26 0 0 0 0 0 0 0 53 272 466 433 200 176 165 242 212 13 13 0 0 0 0 0 0 0 0 0 0 0 0 0 0 0 0 0 0 0 0 0
2 35 57 47 44 21 0 0 0 0 0 0 72 172 253 328 89 46 124 166 163 0 5 17 33 10 0 0 0 14 0 0 0 0 4 35 8 2 0 1 3 10 14 4
48 1 16 25 85 90 0 0 0 0 4 120 178 164 169 199 102 64 62 13 3 0 0 49 36 0 0 0 0 6 42 28 26 31 49 69 93 88 24 4 1 0 4 7
34 26 9 0 0 0 0 0 0 4 64 140 232 255 209 169 56 34 38 0 0 0 0 93 0 0 0 0 10 6 12 25 56 65 67 4 47 44 17 14 0 5 12 0
25 18 1 0 0 0 42 0 0 0 0 0 47 77 77 84 135 44 2 0 0 0 38 0 0 0 1 124 179 147 135 122 110 90 56 28 4 0 1 7 7 5 2 5
123 89 25 114 19 0 0 0 0 0 0 0 4 33 13 4 26 0 15 12 31 0 58 131 56 1 15 51 97 130 160 177 79 2 7 0 0 0 0 0 8 6 8 8
53 0 24 87 71 22 1 0 0 1 0 0 14 52 18 21 4 2 0 6 1 5 10 33 49 5 64 62 38 46 79 120 31 58 8 0 0 0 0 0 0 0 0 0
CIN
0 0 0 0 0 0 0 0 0 0 -37 -15 -83 -103 -103 -138 -102 -88 -76 -66 -49 -89 -271 -29 -68 -104 -113 -88 -80 -92 -84 -102 -114 -104 -80 -71 -65 -55 -32 -20 -19 -16 -12 -6
0 0 0 0 0 0 0 0 0 -1 -29 -80 -189 -197 -156 -132 -108 -103 -87 -93 -84 -76 -124 -117 -43 -29 -49 -82 -34 -48 -36 -49 -46 -55 -63 -59 -47 -44 -39 -24 -14 -4 -4 -10
0 0 0 0 0 0 0 0 0 0 -30 -143 -140 -137 -133 -140 -149 -125 -105 -139 -125 -121 -98 -79 -55 -29 -15 -19 -11 0 -1 -8 -18 -19 -17 -23 -34 -29 -39 -31 -14 -3 -1 -7
0 0 0 0 0 0 0 0 0 -26 -123 -139 -132 -182 -160 -133 -90 -113 -164 -158 -142 -110 -110 -97 -42 -28 -46 -20 -17 -35 -1 -31 -4 -45 -39 -20 -22 -20 -6 -9 -3 -4 -1 -1
0 0 0 0 0 0 0 0 -76 -84 -155 -147 -142 -126 -168 -168 -146 -147 -160 -170 -144 -137 -116 -91 -88 -75 -89 -83 -11 -9 -44 -82 -31 -14 -21 -28 -22 -17 -15 -17 -18 -32 -41 -43
0 0 0 0 0 -8 -112 -36 -108 -124 -111 -110 -131 -39 -101 -193 -183 -170 -161 -149 -125 -103 -88 -116 -163 -152 -124 -76 -53 0 -7 -22 -69 -62 -48 -21 -12 0 -34 -48 0 0 0 0
0 0 0 0 -95 0 -39 0 -99 -115 -97 -104 -57 -121 -190 -193 -162 -155 -130 -102 -98 -130 -113 -130 -181 -172 -148 -96 -48 -4 -14 -26 -11 -92 -27 -14 -3 -1 -16 0 0 0 0 0
0 0 0 0 -94 -43 -35 0 -77 -110 -119 -115 -196 -273 -183 -156 -137 -110 -78 -80 -93 -116 -122 -137 -17 -151 -143 -57 -79 -52 -57 -142 -236 -55 -9 -18 -1 0 0 0 0 0 0 0
0 0 -89 -218 -95 -62 -142 -58 -108 -84 -114 -94 -140 -148 -153 -113 -116 -92 -67 -57 -80 -101 -104 -140 0 -4 -161 -188 -149 -107 -92 -190 -169 0 0 0 0 0 0 0 0 0 0 0
0 0 0 0 -250 0 -196 -65 -77 -83 -82 -86 -42 -64 -129 -128 -114 -89 -65 -66 -97 -110 -6 0 0 0 0 0 -110 -132 0 0 0 0 0 0 0 0 0 0 0 0 0 0
0 0 0 -220 -201 -175 -196 -159 -124 -135 -87 -74 -66 -69 -104 -134 -125 -87 -65 -69 -77 -110 -35 0 0 0 0 0 0 0 0 0 0 0 0 0 0 0 0 0 0 0 0 0
-9 -105 -77 -86 -173 -247 -138 -94 -87 -68 -68 -103 -116 -86 -144 -122 -111 -81 -59 -59 -62 -73 -59 -50 -44 0 0 0 0 0 0 0 0 0 0 0 0 0 0 0 0 0 0 0
-10 -6 0 -6 -233 -284 -155 -142 -191 -142 -143 -126 -142 -134 -140 -142 -143 -137 -43 -27 -31 -51 -60 -33 -46 -120 0 0 0 0 0 0 0 0 0 0 0 0 0 0 0 0 0 0
0 -75 -126 -49 -75 -174 -166 -249 -327 -225 -213 -175 -159 -190 -170 -151 -189 -92 -54 -26 -9 -19 -42 -42 -60 -120 0 0 0 0 0 0 0 0 0 0 0 0 0 0 0 0 0 0
0 0 0 0 -172 -176 -259 -263 -180 -138 -163 -168 -202 -153 -148 -115 -89 -70 -46 -21 -27 -26 -68 -49 -36 -36 0 0 0 0 0 0 0 0 0 0 0 0 0 0 0 0 0 0
0 0 0 0 -145 -185 0 0 -7 -117 0 -225 -159 -153 -130 -112 -80 -61 -62 -54 -22 -42 -105 -129 -155 -206 0 0 0 0 0 0 0 0 0 0 0 0 0 0 0 0 0 0
0 -75 -138 -159 -172 -181 -120 -123 -145 0 0 0 0 -4 -146 -124 -91 -74 -64 -47 -19 -18 -82 -105 -190 -262 -16 0 0 0 0 0 0 0 0 0 0 0 0 0 0 0 0 0
-82 -59 -67 -76 -52 -84 -121 -11 0 0 0 0 0 -172 -101 -88 -41 -44 -38 -60 -79 -116 -140 -158 -216 -231 -436 -98 0 0 0 0 0 0 0 0 0 0 0 0 0 0 0 0
0 0 0 -57 -149 -147 -136 -156 0 0 0 0 -251 -119 -79 -53 -47 -42 -58 -67 -59 -56 -174 0 0 -96 -238 -123 0 0 0 0 0 0 0 0 0 0 0 0 0 0 0 0
-203 -108 0 0 -167 0 0 0 0 0 0 0 -180 -128 -106 -81 -73 -67 -74 -34 -37 -75 -156 0 0 -178 -1 0 0 0 0 0 0 0 0 0 0 0 0 0 0 0 0 0
-187 -166 -177 -172 -180 0 0 -14 0 0 0 0 -208 -107 -64 -71 -97 -89 -82 -28 -32 -49 -210 0 -28 -23 0 0 0 0 0 0 0 0 0 0 0 0 0 0 0 0 0 0
-315 -203 -174 -195 -205 -74 0 0 0 0 0 0 -212 -122 -94 -76 -135 -150 -87 -55 -57 0 -116 -194 -136 -32 0 0 0 -85 0 -44 0 0 -23 -86 -24 -13 -2 -13 -24 -27 -26 -36
-278 -38 -272 -241 -193 -180 0 0 0 0 -161 -209 -155 -138 -103 -63 -96 -109 -111 -132 -60 0 0 -119 -53 0 0 0 0 -97 -60 -80 -88 -103 -79 -51 -42 -56 -31 -31 -24 0 -36 -33
-235 -277 -314 0 0 0 0 0 0 -145 -233 -178 -126 -108 -99 -85 -154 -175 -123 0 0 0 0 -84 0 0 0 0 -121 -116 -114 -93 -72 -67 -61 -5 -54 -66 -43 -43 0 -38 -42 -51
-216 -226 -42 0 0 0 -88 0 0 0 0 0 -229 -202 -184 -143 -79 -165 -269 0 0 0 -147 0 0 0 -7 -90 -50 -49 -49 -48 -48 -56 -64 -79 -35 0 -8 -30 -31 -36 -43 -37
-150 -117 -150 -183 -170 0 0 0 0 0 0 0 -124 -153 -220 -262 -208 0 -236 -110 -181 0 -125 -60 -131 -25 -174 -107 -72 -54 -39 -30 -48 -4 -30 0 0 0 0 -8 -40 -57 -65 -51
-98 0 -146 -113 -141 -179 -38 0 0 -12 0 0 -117 -100 -184 -208 -198 -57 -8 -143 -24 -203 -176 -127 -95 -25 -79 -78 -96 -86 -60 -40 -84 -54 -18 0 0 0 0 0 0 0 0 0
Wind_Speed
2 4 5 5 7 11 11 5 7 1 8 5 0 6 8 8 5 3 2 2 4 3 3 7 4 4 6 6 7 11 13 13 13 13 12 11 11 12 11 11 10 10 9 8
5 3 4 5 7 10 10 6 11 8 12 3 3 5 9 8 6 5 5 3 4 4 1 3 5 1 2 2 1 4 9 10 10 10 11 12 12 11 10 10 10 10 11 10
5 4 3 8 12 12 7 7 9 10 7 8 5 6 6 7 7 6 4 4 3 1 2 4 5 3 4 5 2 2 4 4 7 8 10 11 10 10 11 11 10 10 11 10
4 6 11 3 1 7 11 7 14 6 4 5 8 6 6 5 6 5 4 3 3 3 3 2 2 2 3 5 5 4 4 4 6 7 8 9 10 10 9 8 9 9 8 8
5 9 2 5 6 7 9 10 12 11 6 9 8 7 4 3 4 3 3 2 2 2 4 4 4 4 2 2 4 6 8 5 6 6 7 8 9 8 6 6 5 4 4 6
4 6 8 3 5 6 4 8 11 10 9 12 9 7 4 6 6 5 3 4 3 2 2 5 4 5 5 5 4 7 4 10 9 10 11 11 11 9 5 4 6 6 6 7
5 6 4 6 7 7 7 1 11 10 10 10 5 3 8 8 7 6 5 4 3 2 2 4 5 5 6 6 5 4 5 5 9 7 11 10 10 5 7 7 8 9 8 6
3 6 9 9 8 7 2 3 8 8 10 10 7 7 8 8 8 8 7 6 4 2 2 3 3 4 5 5 3 3 4 5 5 3 3 3 7 6 8 10 11 10 10 5
8 6 1 9 2 4 6 6 7 9 9 10 11 9 8 8 9 8 8 6 4 2 1 3 4 3 2 2 3 1 5 5 5 7 6 5 6 7 6 7 8 7 7 5
4 6 5 9 3 3 6 5 6 6 7 10 8 8 10 8 9 9 9 7 5 4 2 1 2 3 1 1 1 2 4 5 5 6 8 6 5 4 5 5 6 6 6 6
4 2 2 3 7 3 6 3 4 5 5 7 6 5 7 9 10 9 9 8 6 4 2 1 1 1 3 1 2 4 6 5 5 5 6 6 6 5 4 5 3 6 6 7
5 6 2 6 7 5 8 8 4 4 4 3 6 5 6 6 7 8 9 7 7 5 4 2 3 1 1 1 2 5 5 4 4 5 4 5 5 7 17 11 10 11 11 8
4 9 2 4 5 4 3 2 3 1 2 2 2 5 4 5 7 8 9 11 10 8 5 4 3 3 1 1 2 3 6 5 4 4 4 5 5 7 8 9 17 15 11 11
1 3 5 3 2 6 3 4 4 4 4 3 3 4 5 5 6 8 10 9 8 9 7 5 5 3 2 1 3 4 5 6 4 5 5 5 6 6 6 6 7 7 11 7
5 5 3 1 3 2 3 3 4 4 4 3 4 4 5 7 7 7 6 8 9 8 6 5 5 4 3 3 4 5 5 4 4 4 5 5 4 5 6 6 6 7 7 5
3 3 9 10 5 5 4 4 7 6 6 5 5 5 5 4 5 6 8 10 11 9 8 6 5 5 5 5 5 4 5 8 6 5 5 6 6 6 6 7 8 7 7 7
8 6 5 4 8 8 11 7 6 3 6 6 6 6 6 6 6 7 8 10 7 7 7 7 7 7 6 7 7 5 6 6 6 7 6 6 6 6 6 7 8 6 6 6
11 10 7 8 8 9 9 9 6 6 6 7 8 9 8 8 7 8 8 7 5 5 5 5 6 7 7 7 6 6 6 6 6 6 6 6 6 6 6 6 7 7 6 6
12 13 12 11 10 7 7 7 8 8 8 8 10 10 9 8 7 8 8 8 7 7 7 6 8 8 7 7 7 6 6 7 6 5 5 6 5 6 6 6 6 6 7 7
13 13 13 13 8 9 8 6 7 9 9 9 8 8 9 8 8 9 9 10 9 6 8 9 9 7 6 7 6 5 6 7 6 5 5 6 6 6 6 6 6 6 6 6
11 11 13 13 11 8 9 7 9 10 11 10 11 10 8 8 9 9 9 8 9 7 8 10 9 7 7 6 7 5 6 6 6 5 6 5 5 6 7 8 8 7 7 6
7 5 11 11 10 9 8 8 8 8 10 10 9 9 8 9 9 9 9 8 6 11 7 8 8 9 7 10 7 6 6 6 6 6 6 5 5 5 6 7 8 8 8 8
10 5 4 3 6 7 9 8 8 8 10 10 11 12 11 8 8 8 8 9 6 8 8 7 8 12 11 8 7 7 6 5 5 5 5 5 5 5 7 9 8 8 8 8
8 7 3 1 4 7 9 9 8 8 7 7 7 7 8 7 7 8 5 7 10 10 9 7 9 12 11 7 7 8 7 7 7 7 7 6 6 6 6 8 8 8 7 7
7 5 3 2 4 6 5 6 7 6 6 7 6 7 8 7 7 7 9 8 9 10 9 9 11 13 9 8 8 8 8 8 8 8 8 8 8 7 7 7 8 9 8 8
7 5 4 4 4 3 3 5 5 4 5 6 6 7 7 7 7 6 8 9 10 10 9 8 8 9 9 10 10 10 9 9 9 9 9 8 8 7 7 6 6 6 7 7
6 4 4 4 2 3 4 5 6 7 8 8 8 6 7 7 8 8 8 8 8 9 10 9 9 10 10 10 10 11 10 9 10 10 10 9 9 8 8 7 6 6 6 6
Wind_Direction
139 164 189 183 182 187 209 209 231 223 222 287 354 214 190 177 197 222 248 321 333 9 333 317 301 337 337 265 231 224 223 222 224 225 224 221 215 211 218 219 225 230 233 240
170 187 235 232 203 203 221 224 251 253 257 253 163 136 164 188 201 230 279 313 324 8 162 288 291 354 46 33 294 229 223 229 232 225 224 217 215 214 208 219 223 223 231 237
191 189 231 236 220 198 196 211 226 217 240 158 162 169 168 182 204 229 248 288 289 28 305 217 256 266 308 329 358 121 186 219 229 217 222 222 214 212 206 209 215 221 233 234
153 160 224 244 150 234 230 243 214 232 186 159 133 146 157 191 198 198 231 253 255 218 224 237 268 231 305 276 269 271 247 183 206 203 209 210 203 199 201 202 214 216 226 236
185 207 289 226 193 193 207 245 216 209 161 141 142 153 109 184 191 189 189 186 251 253 247 262 287 298 302 304 264 250 258 267 251 225 184 175 173 167 168 161 179 215 181 154
161 210 227 244 182 200 163 255 186 196 174 161 158 182 133 166 168 166 169 175 195 181 253 280 298 290 299 299 290 270 236 236 240 234 229 231 238 236 189 146 131 121 98 104
168 214 247 236 158 149 197 25 168 187 175 167 184 49 125 153 164 168 173 177 173 205 276 301 297 290 263 270 269 279 309 319 236 216 234 235 234 173 157 143 122 98 94 89
138 206 243 157 147 216 149 119 166 174 180 173 136 153 155 166 166 171 171 181 199 247 322 313 306 268 243 241 308 325 19 36 25 200 205 166 143 126 129 127 118 118 109 97
217 208 52 192 207 150 172 157 179 185 180 176 174 187 180 182 175 179 182 183 199 252 294 351 338 310 248 342 324 97 77 50 50 80 45 69 119 123 120 120 120 127 127 128
195 190 217 198 215 216 195 195 174 198 179 186 195 167 181 182 182 182 184 185 181 196 248 68 32 341 356 333 200 155 102 69 52 59 65 44 64 77 103 105 113 112 119 103
210 261 224 228 224 188 182 174 148 169 191 213 220 211 183 186 190 191 181 177 179 191 228 6 74 0 345 312 136 102 111 102 86 83 85 81 54 29 65 50 70 129 132 134
202 173 235 185 180 166 174 199 195 203 209 227 235 239 200 202 193 182 180 177 182 186 200 183 131 98 11 338 176 149 115 116 108 108 102 102 98 78 45 52 65 84 99 131
313 154 112 72 124 145 160 150 131 183 236 279 241 226 193 170 183 180 182 184 188 190 190 183 157 146 94 127 175 175 132 137 121 112 129 137 138 131 114 69 63 51 72 83
213 134 99 181 162 183 165 100 107 98 86 103 141 157 146 145 151 187 200 199 178 172 178 193 182 146 113 126 149 139 120 112 123 134 140 137 125 119 121 121 113 99 48 81
265 265 331 109 234 158 156 168 204 199 146 134 117 149 176 176 182 190 179 180 180 169 167 174 181 158 142 119 149 135 134 129 129 114 118 110 95 106 113 107 111 120 128 101
292 257 255 233 221 201 191 210 236 217 173 154 153 170 166 167 180 159 160 172 182 182 170 170 156 138 134 144 136 115 106 112 113 126 136 131 129 133 141 135 142 150 150 142
226 233 224 218 217 204 216 229 237 214 172 164 172 165 165 177 182 161 164 174 185 185 174 171 156 155 152 153 161 153 143 146 134 147 141 140 136 148 146 143 142 164 156 153
225 236 237 248 241 220 222 223 212 195 186 174 169 168 164 176 174 168 167 159 158 164 190 175 162 159 165 169 175 158 152 151 154 143 134 146 147 143 147 151 162 159 157 148
239 242 243 248 240 217 227 224 210 190 186 176 174 177 175 175 173 172 164 171 182 188 193 184 165 176 168 167 166 166 162 161 159 159 160 141 160 152 157 164 166 167 164 164
254 240 239 242 218 207 219 208 181 182 187 184 184 175 177 167 168 174 179 193 197 196 170 179 177 180 175 161 195 172 167 170 171 170 177 184 187 181 180 177 187 190 190 187
247 237 230 220 218 218 218 184 174 183 179 179 186 191 187 165 170 171 182 203 201 187 183 164 186 186 185 177 197 191 184 184 183 168 170 185 174 193 192 195 200 208 209 210
347 273 234 216 200 198 181 166 179 175 180 183 189 187 177 176 176 191 205 211 175 172 188 184 193 187 185 180 200 193 182 179 190 182 184 182 193 201 202 196 200 204 209 212
0 344 322 236 187 162 148 166 175 173 177 182 181 181 187 187 185 191 205 206 210 178 205 208 180 164 165 194 197 204 196 198 201 206 215 218 220 219 218 215 211 210 207 212
348 14 360 228 159 154 173 184 177 176 186 191 200 186 176 179 188 212 218 153 184 167 212 192 177 174 175 194 199 205 214 216 219 226 230 236 239 239 232 223 216 217 218 210
324 338 6 196 216 219 173 150 160 182 201 206 192 201 206 209 211 187 198 194 174 189 207 189 181 171 194 206 207 211 216 219 221 223 231 233 238 231 232 224 222 220 221 221
321 320 325 299 278 258 204 180 197 185 189 203 205 202 201 204 209 191 188 198 190 197 208 201 200 194 210 214 217 220 222 227 226 223 230 233 229 231 228 225 222 213 220 223
358 345 320 302 290 266 230 219 213 205 198 206 220 212 220 210 207 206 199 190 203 206 215 217 213 207 217 218 217 223 223 225 222 222 219 223 221 226 227 222 222 220 219 218